CZ-6A DEB, 61418

Orbit data source: Space-Track

CZ-6A DEB, 61418 is space debris in LEO originally from a launch on Tue, 06 Aug 2024 UTC launched from the Taiyaun Space Center, China (TSC). Debris objects in space refer to the collection of defunct objects orbiting the Earth. Examples of debris include non-operational satellites, rocket bodies, and fragments generated from explosions, collisions, or faulty payload assembly.

Loading next visibility...
Identifier
61418, 2024-140YK
Orbit
LEO
Country
Flag of CNCN / PRC
Related business
Manufacturer
SAST
Mission
Spacecraft
Bus & Motor
Unknown
Mass
Unknown
Launch date (UTC)
2024-08-06 (2 years ago)
Launch vehicle
Unknown
Launch site
Taiyaun Space Center, China (TSC)
Object type
Payload
Rocket body
Debris
Shape & HBR
Unknown shape, 0.1 m
Radar Cross Section
Small (<0.1 m²)

Expand to show TLE details & history
Last TLE update: 14 hours ago

TLE from 14 hours ago
0 CZ-6A DEB
1 61418U 24140YK  26171.30549095  .00000778  00000-0  30237-3 0  9993
2 61418  88.9836 271.9038 0051047  75.6065 285.0788 14.28220572 96174
Epoch: 2026-06-20T07:19Z
TLE epoch observation values (Epoch: 2026-06-20T07:19:54.418Z)
Latitude
0.00001°
Longitude
-106.59496°
Altitude
791.393 km
Speed
7.463 km/s
True Right ascension
18h 07m 36s
True Declination
0° 00' 00"
Sunlit
Object was in full shadow at epoch
Visualization orbit readout
Latitude
Unknown
Longitude
Unknown
Altitude
Unknown
Speed
Unknown
Apparent Right ascension
Unknown
Apparent Declination
Unknown
Sunlit
N/A
Visualization observer readout
Local Sidereal Time
08:42:00
Azimuth
Unknown
Elevation
Unknown
Doppler factor
Unknown
Orbital elements
Apogee altitude
831.239 km
Perigee altitude
758.01 km
Semi-major axis
7,172.761 km
Eccentricity
0.0051
Inclination
88.9836°
RAAN
271.9038°
Arg. of periapsis
75.6065°
True anomaly
284.51306°
Mean anomaly
285.0788°
Eccentric anomaly
284.79602°
Mean motion
3.57284 °/min
Orbital period
100.76 mins
BSTAR
0.00030237
Loading maneuver chart data...
Computing Atmospheric mass density...
Loading historical data...
Loading historical data...
Loading historical data...
Loading historical data...
Loading historical data...
Loading historical data...
Loading historical data...

Documentation

Showing up to 5 results
|